Weather History for Reading, PA

Change the Weather History Date:

Wednesday, July 24, 2013

  Actual Average Record
Temperature  
Mean Temperature 71 °F 75 °F  
Max Temperature 80 °F 85 °F 96 °F (2010)
Min Temperature 62 °F 64 °F 51 °F (1985)
Degree Days  
Heating Degree Days 0 0  
Month to date heating degree days 0 0  
Since 1 June heating degree days 2 24  
Since 1 July heating degree days 0 0  
Cooling Degree Days 6 10  
Month to date cooling degree days 364 237  
Year to date cooling degree days 704 486  
Since 1 June cooling degree days 605 426  
Growing Degree Days 23 (Base 50)    
Moisture  
Dew Point 61 °F    
Average Humidity 68    
Maximum Humidity 90    
Minimum Humidity 45    
Precipitation  
Precipitation 0.00 in 0.15 in 1.46 in (1887)
Month to date precipitation 5.12 3.53  
Year to date precipitation 24.37 24.33  
Sea Level Pressure  
Sea Level Pressure 29.80 in    
Wind  
Wind Speed 8 mph (NNW)    
Max Wind Speed 17 mph    
Max Gust Speed 22 mph    
Visibility 10 miles    
Events      
T = Trace of Precipitation, MM = Missing Value Source: NWS Daily Summary

Daily Weather History Graph

Daily Weather History Graph

Search for Another Location

Airport:

Trip Planner

Search our weather history database for the weather conditions in past years. The results will help you decide how hot, cold, wet, or windy it might be!

Date:

Astronomy

Jul. 24, 2013 Rise Set
Actual Time 5:54 AM EDT 8:25 PM EDT
Civil Twilight 5:22 AM EDT 8:57 PM EDT
Nautical Twilight 4:44 AM EDT 9:35 PM EDT
Astronomical Twilight 4:00 AM EDT 10:19 PM EDT
Moon 9:29 PM EDT (7/24) 8:12 AM EDT (7/24)
Length of Visible Light 15h 34m
Length of Day
14h 31m
Waning Gibbous, 95% of the Moon is Illuminated
Jul 24
Waning Gibbous
Jul 29
Last Quarter
Aug 6
New
Aug 14
First Quarter
Aug 20
Full

Hourly Weather History & Observations

Time (EDT) Temp. Heat Index Dew Point Humidity Pressure Visibility Wind Dir Wind Speed Gust Speed Precip Events Conditions
12:54 AM 73.9 °F - 66.0 °F 76% 29.69 in 10.0 mi Calm Calm - N/A   Clear
1:54 AM 72.0 °F - 66.9 °F 84% 29.69 in 10.0 mi Calm Calm - N/A   Clear
2:54 AM 71.1 °F - 66.0 °F 84% 29.68 in 10.0 mi Calm Calm - N/A   Clear
3:54 AM 71.1 °F - 64.9 °F 81% 29.67 in 10.0 mi SW 3.5 mph - N/A   Clear
4:54 AM 69.1 °F - 66.0 °F 90% 29.68 in 9.0 mi Calm Calm - N/A   Clear
5:54 AM 70.0 °F - 64.9 °F 84% 29.70 in 10.0 mi WNW 3.5 mph - N/A   Clear
6:54 AM 71.1 °F - 64.9 °F 81% 29.71 in 10.0 mi NNW 5.8 mph - N/A   Clear
7:54 AM 73.0 °F - 64.9 °F 76% 29.74 in 10.0 mi NW 5.8 mph - N/A   Partly Cloudy
8:54 AM 75.9 °F - 66.0 °F 71% 29.76 in 10.0 mi WNW 9.2 mph - N/A   Overcast
9:54 AM 75.9 °F - 66.0 °F 71% 29.78 in 10.0 mi NNW 9.2 mph - N/A   Mostly Cloudy
10:54 AM 75.0 °F - 64.9 °F 71% 29.80 in 10.0 mi NNW 10.4 mph - N/A   Overcast
11:54 AM 72.0 °F - 63.0 °F 73% 29.82 in 10.0 mi North 13.8 mph - N/A   Overcast
12:22 PM 73.4 °F - 62.6 °F 69% 29.82 in 10.0 mi NNW 10.4 mph - N/A   Overcast
12:54 PM 75.0 °F - 62.1 °F 64% 29.83 in 10.0 mi North 8.1 mph - N/A   Mostly Cloudy
1:54 PM 75.9 °F - 61.0 °F 60% 29.83 in 10.0 mi NNW 5.8 mph - N/A   Overcast
2:54 PM 77.0 °F - 60.1 °F 56% 29.83 in 10.0 mi NNW 8.1 mph - N/A   Overcast
3:54 PM 80.1 °F 81.1 °F 61.0 °F 52% 29.83 in 10.0 mi NW 11.5 mph - N/A   Scattered Clouds
4:54 PM 80.1 °F 80.6 °F 57.9 °F 47% 29.83 in 10.0 mi WNW 9.2 mph - N/A   Clear
5:54 PM 79.0 °F - 57.0 °F 47% 29.83 in 10.0 mi NW 11.5 mph - N/A   Clear
6:54 PM 77.0 °F - 57.0 °F 50% 29.85 in 10.0 mi North 13.8 mph - N/A   Scattered Clouds
7:54 PM 73.9 °F - 55.9 °F 53% 29.88 in 10.0 mi North 9.2 mph - N/A   Mostly Cloudy
8:54 PM 70.0 °F - 53.1 °F 55% 29.91 in 10.0 mi NNE 15.0 mph 19.6 mph N/A   Partly Cloudy
9:54 PM 68.0 °F - 52.0 °F 56% 29.94 in 10.0 mi NNE 8.1 mph - N/A   Partly Cloudy
10:54 PM 66.0 °F - 51.1 °F 59% 29.97 in 10.0 mi NNE 8.1 mph - N/A   Clear
11:54 PM 63.0 °F - 52.0 °F 67% 29.98 in 10.0 mi NNW 5.8 mph - N/A   Partly Cloudy